AD4WX-13 Weather Reports


time (UTC)temp
F
wind
direction
speed
knots
gust
knots
rain 1hr
in
rain 24hr
in
rain mn
in
humidity
%
barometer
mb
20260510190248 84 149 0.9 5.2 0.00 0.00 0.00 39 1013.9
20260510185312 84 136 0.9 5.2 0.00 0.00 0.00 39 1013.8
20260510184317 87 190 0.9 4.3 0.00 0.00 0.00 38 1013.8
20260510183152 86 341 0.0 3.5 0.00 0.00 0.00 36 1013.9
20260510182157 86 141 0.9 6.1 0.00 0.00 0.00 38 1013.9
20260510181157 85 139 1.7 6.1 0.00 0.00 0.00 42 1014.0
20260510180221 85 102 1.7 5.2 0.00 0.00 0.00 41 1014.1
20260510175242 85 65 0.9 3.5 0.00 0.00 0.00 40 1014.2
20260510174142 84 141 1.7 3.5 0.00 0.00 0.00 40 1014.3
20260510173113 83 151 0.9 4.3 0.00 0.00 0.00 48 1014.4
20260510172116 83 175 1.7 4.3 0.00 0.00 0.00 44 1014.5
20260510171116 83 113 0.9 4.3 0.00 0.00 0.00 49 1014.5
20260510170004 82 136 0.9 4.3 0.00 0.00 0.00 50 1014.6
20260510164950 82 351 0.9 5.2 0.00 0.00 0.00 54 1014.7
20260510163821 82 196 0.9 5.2 0.00 0.00 0.00 54 1014.7
20260510162816 81 132 0.9 5.2 0.00 0.00 0.00 56 1014.7
20260510161714 80 163 0.9 4.3 0.00 0.00 0.00 62 1014.5
20260510160717 80 109 0.0 6.1 0.00 0.00 0.00 62 1014.6
20260510155709 79 88 0.9 6.1 0.00 0.00 0.00 65 1014.5
20260510154648 79 144 0.9 4.3 0.00 0.00 0.00 66 1014.6
20260510153642 79 177 0.9 4.3 0.00 0.00 0.00 67 1014.6
20260510152622 78 73 0.9 3.5 0.00 0.00 0.00 71 1014.6
20260510151507 77 182 0.9 4.3 0.00 0.00 0.00 70 1014.6
20260510150515 76 152 0.9 4.3 0.00 0.00 0.00 72 1014.6
20260510145515 74 165 0.0 2.6 0.00 0.00 0.00 74 1014.4
20260510144334 73 136 0.9 6.1 0.00 0.00 0.00 76 1014.6
20260510143304 72 168 1.7 6.1 0.00 0.00 0.00 78 1014.6
20260510142317 72 142 1.7 5.2 0.00 0.00 0.00 78 1014.7
20260510141200 72 174 0.9 4.3 0.00 0.00 0.00 79 1014.5
20260510140105 71 128 0.9 2.6 0.00 0.00 0.00 81 1014.6
20260510135052 71 124 0.9 3.5 0.00 0.00 0.00 82 1014.5
20260510134018 70 123 0.9 3.5 0.00 0.00 0.00 84 1014.5
20260510133010 69 144 0.9 2.6 0.00 0.00 0.00 87 1014.5
20260510132005 69 183 0.0 1.7 0.00 0.00 0.00 89 1014.5
20260510130959 67 190 0.0 0.9 0.00 0.00 0.00 89 1014.6
20260510125942 66 190 0.0 0.0 0.00 0.00 0.00 87 1014.6
20260510125001 63 190 0.0 0.0 0.00 0.00 0.00 87 1014.5
20260510123927 61 190 0.0 0.0 0.00 0.00 0.00 87 1014.4
20260510122858 59 202 0.0 0.0 0.00 0.00 0.00 88 1014.4
20260510121732 56 202 0.0 0.0 0.00 0.00 0.00 88 1014.1
20260510120608 55 310 0.0 0.0 0.00 0.00 0.00 89 1014.0
20260510115544 54 310 0.0 0.0 0.00 0.00 0.00 89 1014.0
20260510114548 53 288 0.0 0.0 0.00 0.00 0.00 89 1013.7
20260510113436 53 288 0.0 0.0 0.00 0.00 0.00 90 1013.5
20260510112409 52 288 0.0 0.0 0.00 0.00 0.00 90 1013.2
20260510111238 52 288 0.0 0.0 0.00 0.00 0.00 90 1013.1
20260510110225 52 288 0.0 0.0 0.00 0.00 0.00 90 1013.0
20260510105242 52 288 0.0 0.0 0.00 0.00 0.00 90 1012.8
20260510104237 52 211 0.0 0.0 0.00 0.00 0.00 90 1012.6
20260510103142 52 211 0.0 0.0 0.00 0.00 0.00 90 1012.5
20260510102154 52 211 0.0 0.0 0.00 0.00 0.00 90 1012.3
20260510101153 52 211 0.0 0.0 0.00 0.00 0.00 90 1012.3
20260510100136 52 211 0.0 0.0 0.00 0.00 0.00 90 1012.2
20260510095128 53 211 0.0 0.0 0.00 0.00 0.00 90 1012.1
20260510094016 52 211 0.0 0.0 0.00 0.00 0.00 90 1012.2
20260510093015 52 211 0.0 0.0 0.00 0.00 0.00 90 1012.0
20260510091953 52 211 0.0 0.0 0.00 0.00 0.00 90 1011.9
20260510090955 53 211 0.0 0.0 0.00 0.00 0.00 90 1011.8
20260510085858 53 211 0.0 0.0 0.00 0.00 0.00 90 1011.9
20260510084720 53 211 0.0 0.0 0.00 0.00 0.00 90 1011.9
20260510083715 53 211 0.0 0.0 0.00 0.00 0.00 90 1011.8
20260510082718 53 211 0.0 0.0 0.00 0.00 0.00 90 1011.7
20260510081722 53 211 0.0 0.0 0.00 0.00 0.00 90 1011.7
20260510080650 53 211 0.0 0.0 0.00 0.00 0.00 90 1011.7
20260510075509 53 211 0.0 0.0 0.00 0.00 0.00 90 1011.8
20260510074326 53 211 0.0 0.0 0.00 0.00 0.00 90 1011.9
20260510073309 53 211 0.0 0.0 0.00 0.00 0.00 90 1011.7
20260510072309 53 211 0.0 0.0 0.00 0.00 0.00 90 1011.5
20260510071321 53 211 0.0 0.0 0.00 0.00 0.00 90 1011.4
20260510070255 53 211 0.0 0.0 0.00 0.00 0.00 90 1011.4
20260510065318 53 211 0.0 0.0 0.00 0.00 0.00 91 1011.3
20260510064317 53 211 0.0 0.0 0.00 0.00 0.00 91 1011.2
20260510063320 54 211 0.0 0.0 0.00 0.00 0.00 91 1011.2
20260510062225 54 211 0.0 0.0 0.00 0.00 0.00 91 1011.3
20260510061129 54 211 0.0 0.0 0.00 0.00 0.00 91 1011.2
20260510060105 54 211 0.0 0.0 0.00 0.00 0.00 91 1011.2
20260510055124 54 211 0.0 0.0 0.00 0.00 0.00 91 1011.4
20260510054135 54 211 0.0 0.0 0.00 0.00 0.00 91 1011.3
20260510053126 54 211 0.0 0.0 0.00 0.00 0.00 91 1011.3
20260510052124 54 211 0.0 0.0 0.00 0.00 0.00 91 1011.3
20260510051138 55 211 0.0 0.0 0.00 0.00 0.00 91 1011.2
20260510050105 55 211 0.0 0.0 0.00 0.00 0.00 91 1011.2
20260510044919 55 211 0.0 0.0 0.00 0.00 0.00 91 1011.1
20260510043859 55 211 0.0 0.0 0.00 0.00 0.00 91 1011.0
20260510042843 55 211 0.0 0.0 0.00 0.00 0.00 91 1011.1
20260510041856 56 211 0.0 0.0 0.00 0.00 0.00 91 1011.0
20260510040800 56 211 0.0 0.0 0.00 0.00 0.00 90 1011.2
20260510035750 56 211 0.0 0.0 0.00 0.00 0.00 90 1011.2
20260510034744 56 211 0.0 0.0 0.00 0.00 0.00 90 1011.1
20260510033623 57 211 0.0 0.0 0.00 0.00 0.00 90 1011.2
20260510032554 57 211 0.0 0.0 0.00 0.00 0.00 90 1011.2
20260510031529 57 211 0.0 0.0 0.00 0.00 0.00 90 1011.1
20260510030548 58 211 0.0 0.0 0.00 0.00 0.00 89 1010.9
20260510025547 58 211 0.0 0.0 0.00 0.00 0.00 88 1010.9
20260510024601 59 211 0.0 0.0 0.00 0.00 0.00 88 1010.7
20260510023422 59 211 0.0 0.0 0.00 0.00 0.00 87 1010.7
20260510022442 60 211 0.0 0.0 0.00 0.00 0.00 86 1010.5
20260510021421 60 211 0.0 0.0 0.00 0.00 0.00 85 1010.4
20260510020354 61 211 0.0 0.0 0.00 0.00 0.00 84 1010.2
20260510015209 61 211 0.0 0.0 0.00 0.00 0.00 82 1010.0
20260510014217 62 211 0.0 0.0 0.00 0.00 0.00 81 1009.9
20260510013200 63 211 0.0 0.0 0.00 0.00 0.00 80 1009.8
20260510012144 64 211 0.0 0.0 0.00 0.00 0.00 78 1009.7
20260510011023 65 210 0.0 0.0 0.00 0.00 0.00 77 1009.4
20260510005924 66 211 0.0 0.0 0.00 0.00 0.00 75 1009.4
20260510004939 67 211 0.0 0.0 0.00 0.00 0.00 73 1009.2
20260510004003 68 165 0.0 0.0 0.00 0.00 0.00 71 1009.1
20260510003003 69 165 0.0 0.0 0.00 0.00 0.00 70 1009.0
20260510002024 70 310 0.0 0.0 0.00 0.00 0.00 67 1008.9
20260510001010 72 169 0.0 0.0 0.00 0.00 0.00 64 1008.9
20260509235947 73 169 0.0 0.0 0.00 0.00 0.00 58 1008.9
20260509234955 75 169 0.0 0.0 0.00 0.00 0.00 54 1008.8
20260509233925 76 169 0.0 0.0 0.00 0.00 0.00 52 1008.8
20260509232812 78 169 0.0 0.9 0.00 0.00 0.00 46 1008.6
20260509231815 78 169 0.0 0.0 0.00 0.00 0.00 39 1008.6
20260509230837 79 169 0.0 1.7 0.00 0.00 0.00 40 1008.6
20260509225851 81 243 0.0 0.0 0.00 0.00 0.00 41 1008.4
20260509224859 81 244 0.0 1.7 0.00 0.00 0.00 42 1008.4
20260509223905 81 338 0.0 2.6 0.00 0.00 0.00 41 1008.3
20260509222834 82 157 0.0 0.9 0.00 0.00 0.00 40 1008.4
20260509221819 82 155 0.0 1.7 0.00 0.00 0.00 38 1008.4
20260509220658 81 192 0.9 2.6 0.00 0.00 0.00 37 1008.3
20260509215512 81 155 0.9 4.3 0.00 0.00 0.00 39 1008.4
20260509214451 82 214 0.0 4.3 0.00 0.00 0.00 39 1008.3
20260509213426 82 204 0.9 4.3 0.00 0.00 0.00 39 1008.6
20260509212441 82 92 0.9 4.3 0.00 0.00 0.00 43 1008.4
20260509211253 83 57 0.0 2.6 0.00 0.00 0.00 38 1008.4
20260509210113 83 128 0.0 0.0 0.00 0.00 0.00 37 1008.4
20260509205022 83 146 0.0 4.3 0.00 0.00 0.00 39 1008.4
20260509203949 83 162 0.9 6.1 0.00 0.00 0.00 37 1008.5
20260509202931 84 177 1.7 6.1 0.00 0.00 0.00 38 1008.3
20260509201909 82 227 0.9 5.2 0.00 0.00 0.00 38 1008.5
20260509200842 82 157 0.9 5.2 0.00 0.00 0.00 42 1008.6
20260509195812 81 78 1.7 5.2 0.00 0.00 0.00 44 1008.5
20260509194804 82 191 0.0 4.3 0.00 0.00 0.00 42 1008.7
20260509193803 81 146 0.9 5.2 0.00 0.00 0.00 44 1008.7
20260509192746 83 169 0.9 4.3 0.00 0.00 0.00 42 1008.7
20260509191655 81 185 0.0 4.3 0.00 0.00 0.00 45 1008.8